STARLINK-36864, 68045

Orbit data source: Space-Track

STARLINK-36864, 68045 is a payload satellite owned by SpaceX/Seattle (US) in LEO that was launched on Mon, 02 Mar 2026 UTC via an FALCON 9 launch vehicle from the Air Force Eastern Test Range (AFETR). Payload-class satellites include a variety of spacecraft equipped with specific instruments for various scientific and technological missions. These include communications satellites like Starlink; space stations such as the ISS; scientific satellites like the Hubble; Earth observation satellites from companies like Planet Labs, Umbra, and HawkEye 360; GPS; miniature CubeSats for education and research; and military/defense satellites.

Loading next visibility...
Identifier
68045, 2026-041F
Orbit
LEO
Country
Flag of USUS
Related business
Manufacturer
SpaceX/Seattle
Mission
Operational Commercial Communications
Bus & Motor
STARLINK V2MO, Unknown motor
Mass
575 kg wet, ~530 kg dry
Launch date (UTC)
2026-03-02 (2 months ago)
Launch vehicle
FALCON 9
Launch site
Air Force Eastern Test Range (AFETR)
Object type
Payload
Rocket body
Debris
Shape & HBR
Box + 2 Pan, 17.7 m
Radar Cross Section
36.964 m²

Expand to show TLE details & history
Last TLE update: 6 hours ago

TLE from 6 hours ago
0 STARLINK-36864
1 68045U 26041F   26119.16960950  .00026039  00000-0  67637-3 0  9993
2 68045  53.1579 174.9365 0001015  97.5562 262.5558 15.38810253  9122
Epoch: 2026-04-29T04:04Z
TLE epoch observation values (Epoch: 2026-04-29T04:04:14.260Z)
Latitude
-0.00002°
Longitude
-103.25736°
Altitude
450.619 km
Speed
7.643 km/s
True Right ascension
11h 39m 44s
True Declination
0° 00' 00"
Sunlit
Object was in full shadow at epoch
Visualization orbit readout
Latitude
Unknown
Longitude
Unknown
Altitude
Unknown
Speed
Unknown
Apparent Right ascension
Unknown
Apparent Declination
Unknown
Sunlit
N/A
Visualization observer readout
Local Sidereal Time
17:06:57
Azimuth
Unknown
Elevation
Unknown
Doppler factor
Unknown
Orbital elements
Apogee altitude
450.577 km
Perigee altitude
449.191 km
Semi-major axis
6,828.021 km
Eccentricity
0.0001
Inclination
53.1579°
RAAN
174.9365°
Arg. of periapsis
97.5562°
True anomaly
262.54427°
Mean anomaly
262.5558°
Eccentric anomaly
262.55003°
Mean motion
3.84681 °/min
Orbital period
93.58 mins
BSTAR
0.00067637
Loading maneuver chart data...
Computing Atmospheric mass density...
Loading historical data...
Loading historical data...
Loading historical data...
Loading historical data...
Loading historical data...
Loading historical data...
Loading historical data...

Documentation

Showing up to 5 results
|